Tiempo cada hora Aars

Hoy, 28 Octubre, Miércoles

Tiempo Temperatura Precipitaciones Viento Presión Humedad
00:00 +8°C° 0.2 mm 7 mps 745 mmHg 87%
01:00 +7°C° 0.2 mm 8 mps 745 mmHg 86%
02:00 +7°C° 0.4 mm 8 mps 744 mmHg 87%
03:00 +7°C° 0.4 mm 9 mps 743 mmHg 88%
04:00 +7°C° 0.4 mm 9 mps 743 mmHg 89%
05:00 +7°C° 0.4 mm 8 mps 743 mmHg 86%
06:00 +8°C° 0.4 mm 7 mps 744 mmHg 84%
07:00 +7°C° 0.4 mm 5 mps 745 mmHg 82%
08:00 +8°C° 0 mm 6 mps 745 mmHg 79%
09:00 +9°C° 0 mm 6 mps 746 mmHg 77%
10:00 +9°C° 0 mm 6 mps 747 mmHg 74%
11:00 +10°C° 0.1 mm 7 mps 747 mmHg 72%
12:00 +10°C° 0.1 mm 7 mps 747 mmHg 70%
13:00 +11°C° 0.1 mm 8 mps 747 mmHg 67%
14:00 +10°C° 0.2 mm 7 mps 747 mmHg 70%
15:00 +10°C° 0.2 mm 7 mps 747 mmHg 73%
16:00 +9°C° 0.2 mm 6 mps 747 mmHg 75%
17:00 +8°C° 0 mm 6 mps 747 mmHg 78%
18:00 +8°C° 0 mm 6 mps 747 mmHg 81%
19:00 +7°C° 0 mm 5 mps 747 mmHg 84%
20:00 +7°C° 0.1 mm 5 mps 747 mmHg 85%
21:00 +7°C° 0.1 mm 5 mps 747 mmHg 85%
22:00 +7°C° 0.1 mm 5 mps 747 mmHg 86%
23:00 +7°C° 0.1 mm 5 mps 747 mmHg 87%

Mañana, 29 Octubre, Jueves

Tiempo Temperatura Precipitaciones Viento Presión Humedad
00:00 +6°C° 0.1 mm 5 mps 747 mmHg 88%
01:00 +6°C° 0.1 mm 5 mps 747 mmHg 89%
02:00 +6°C° 0 mm 4 mps 747 mmHg 89%
03:00 +6°C° 0 mm 4 mps 747 mmHg 90%
04:00 +6°C° 0 mm 4 mps 747 mmHg 91%
05:00 +6°C° 0 mm 4 mps 748 mmHg 91%
06:00 +5°C° 0 mm 3 mps 748 mmHg 91%
07:00 +5°C° 0 mm 3 mps 748 mmHg 92%
08:00 +6°C° 0 mm 4 mps 749 mmHg 88%
09:00 +7°C° 0 mm 4 mps 749 mmHg 83%
10:00 +8°C° 0 mm 5 mps 750 mmHg 79%
11:00 +9°C° 0.1 mm 5 mps 750 mmHg 77%
12:00 +9°C° 0.1 mm 6 mps 751 mmHg 74%
13:00 +10°C° 0.1 mm 7 mps 751 mmHg 72%
14:00 +10°C° 0.1 mm 6 mps 752 mmHg 75%
15:00 +9°C° 0.1 mm 5 mps 752 mmHg 78%
16:00 +9°C° 0.1 mm 5 mps 753 mmHg 81%
17:00 +8°C° 0 mm 4 mps 753 mmHg 84%
18:00 +7°C° 0 mm 4 mps 753 mmHg 87%
19:00 +7°C° 0 mm 4 mps 754 mmHg 89%
20:00 +7°C° 0 mm 4 mps 754 mmHg 89%
21:00 +6°C° 0 mm 4 mps 755 mmHg 89%
22:00 +6°C° 0 mm 4 mps 755 mmHg 89%
23:00 +6°C° 0 mm 4 mps 755 mmHg 88%

Pasado mañana, 30 Octubre, Viernes

Tiempo Temperatura Precipitaciones Viento Presión Humedad
00:00 +6°C° 0 mm 4 mps 755 mmHg 87%
01:00 +7°C° 0 mm 3 mps 754 mmHg 87%
02:00 +6°C° 0.2 mm 4 mps 754 mmHg 88%
03:00 +7°C° 0.2 mm 4 mps 754 mmHg 90%
04:00 +7°C° 0.2 mm 5 mps 754 mmHg 91%
05:00 +7°C° 0.7 mm 5 mps 753 mmHg 93%
06:00 +7°C° 0.7 mm 5 mps 753 mmHg 94%
07:00 +7°C° 0.7 mm 5 mps 753 mmHg 95%
08:00 +8°C° 0.9 mm 5 mps 753 mmHg 95%
09:00 +8°C° 0.9 mm 4 mps 754 mmHg 96%
10:00 +10°C° 0.9 mm 4 mps 754 mmHg 97%
11:00 +10°C° 0.5 mm 3 mps 754 mmHg 97%
12:00 +11°C° 0.5 mm 3 mps 754 mmHg 97%
13:00 +11°C° 0.5 mm 3 mps 754 mmHg 98%
14:00 +11°C° 0.5 mm 3 mps 755 mmHg 98%
15:00 +12°C° 0.5 mm 3 mps 755 mmHg 97%
16:00 +12°C° 0.5 mm 3 mps 755 mmHg 97%
17:00 +12°C° 0 mm 3 mps 756 mmHg 97%
18:00 +12°C° 0 mm 3 mps 756 mmHg 97%
19:00 +12°C° 0 mm 3 mps 757 mmHg 97%
20:00 +12°C° 0 mm 3 mps 757 mmHg 97%
21:00 +12°C° 0 mm 4 mps 758 mmHg 97%
22:00 +12°C° 0 mm 4 mps 758 mmHg 96%
23:00 +12°C° 0 mm 4 mps 758 mmHg 96%

31 Octubre, Sábado

Tiempo Temperatura Precipitaciones Viento Presión Humedad
00:00 +12°C° 0 mm 3 mps 758 mmHg 96%
01:00 +12°C° 0 mm 3 mps 758 mmHg 96%
02:00 +12°C° 0.2 mm 3 mps 759 mmHg 96%
03:00 +12°C° 0.2 mm 4 mps 759 mmHg 97%
04:00 +12°C° 0.2 mm 4 mps 759 mmHg 97%
05:00 +12°C° 0.1 mm 4 mps 759 mmHg 96%
06:00 +12°C° 0.1 mm 4 mps 759 mmHg 95%
07:00 +13°C° 0.1 mm 5 mps 759 mmHg 94%
08:00 +13°C° 0 mm 5 mps 759 mmHg 91%
09:00 +13°C° 0 mm 5 mps 759 mmHg 89%
10:00 +13°C° 0 mm 6 mps 759 mmHg 86%
11:00 +13°C° 0 mm 6 mps 759 mmHg 85%
12:00 +13°C° 0 mm 6 mps 759 mmHg 84%
13:00 +13°C° 0 mm 6 mps 759 mmHg 83%
14:00 +13°C° 0 mm 6 mps 759 mmHg 83%
15:00 +13°C° 0 mm 6 mps 759 mmHg 82%
16:00 +11°C° 0 mm 6 mps 758 mmHg 82%
17:00 +11°C° 0 mm 6 mps 758 mmHg 83%
18:00 +11°C° 0 mm 6 mps 758 mmHg 85%
19:00 +11°C° 0 mm 6 mps 757 mmHg 86%
20:00 +11°C° 0 mm 7 mps 757 mmHg 87%
21:00 +10°C° 0 mm 7 mps 756 mmHg 88%
22:00 +10°C° 0 mm 7 mps 756 mmHg 89%
23:00 +10°C° 0 mm 7 mps 756 mmHg 88%

1 Noviembre, Domingo

Tiempo Temperatura Precipitaciones Viento Presión Humedad
00:00 +10°C° 0 mm 7 mps 755 mmHg 88%
01:00 +10°C° 0 mm 7 mps 755 mmHg 87%
02:00 +10°C° 0.1 mm 8 mps 754 mmHg 88%
03:00 +10°C° 0.1 mm 8 mps 753 mmHg 89%
04:00 +10°C° 0.1 mm 8 mps 753 mmHg 89%
05:00 +10°C° 0.3 mm 8 mps 752 mmHg 89%
06:00 +11°C° 0.3 mm 8 mps 752 mmHg 90%
07:00 +11°C° 0.3 mm 8 mps 751 mmHg 90%
08:00 +11°C° 0.5 mm 9 mps 750 mmHg 90%
09:00 +11°C° 0.5 mm 9 mps 750 mmHg 90%
10:00 +12°C° 0.5 mm 10 mps 749 mmHg 90%
11:00 +12°C° 0.5 mm 10 mps 749 mmHg 90%
12:00 +12°C° 0.5 mm 10 mps 748 mmHg 89%
13:00 +13°C° 0.5 mm 10 mps 748 mmHg 89%
14:00 +13°C° 1.2 mm 11 mps 747 mmHg 89%
15:00 +13°C° 1.2 mm 11 mps 747 mmHg 90%
16:00 +13°C° 1.2 mm 11 mps 746 mmHg 90%
17:00 +13°C° 0.6 mm 11 mps 746 mmHg 90%
18:00 +14°C° 0.6 mm 11 mps 746 mmHg 89%
19:00 +14°C° 0.6 mm 11 mps 746 mmHg 89%
20:00 +14°C° 1.7 mm 10 mps 746 mmHg 89%
21:00 +13°C° 1.7 mm 9 mps 746 mmHg 90%
22:00 +12°C° 1.7 mm 8 mps 747 mmHg 90%
23:00 +12°C° 1.3 mm 7 mps 747 mmHg 91%

2 Noviembre, Lunes

Tiempo Temperatura Precipitaciones Viento Presión Humedad
00:00 +11°C° 1.3 mm 6 mps 747 mmHg 91%
01:00 +10°C° 1.3 mm 5 mps 748 mmHg 91%
02:00 +11°C° 1.2 mm 4 mps 748 mmHg 92%
03:00 +11°C° 1.2 mm 4 mps 748 mmHg 93%
04:00 +10°C° 1.2 mm 3 mps 748 mmHg 93%
05:00 +10°C° 0.4 mm 3 mps 748 mmHg 94%
06:00 +10°C° 0.4 mm 2 mps 748 mmHg 94%
07:00 +10°C° 0.4 mm 2 mps 749 mmHg 94%
08:00 +10°C° 0.3 mm 2 mps 749 mmHg 95%
09:00 +12°C° 0.3 mm 2 mps 749 mmHg 95%
10:00 +12°C° 0.3 mm 2 mps 749 mmHg 95%
11:00 +12°C° 0.2 mm 2 mps 749 mmHg 95%
12:00 +12°C° 0.2 mm 2 mps 749 mmHg 96%
13:00 +13°C° 0.2 mm 2 mps 749 mmHg 96%
14:00 +13°C° 0.5 mm 4 mps 749 mmHg 92%
15:00 +14°C° 0.5 mm 7 mps 748 mmHg 89%
16:00 +15°C° 0.5 mm 9 mps 748 mmHg 85%
17:00 +15°C° 0 mm 9 mps 748 mmHg 85%
18:00 +14°C° 0 mm 10 mps 749 mmHg 84%
19:00 +14°C° 0 mm 10 mps 749 mmHg 83%
20:00 +12°C° 0 mm 9 mps 750 mmHg 85%
21:00 +11°C° 0 mm 7 mps 751 mmHg 87%
22:00 +10°C° 0 mm 5 mps 752 mmHg 89%
23:00 +9°C° 0.1 mm 6 mps 753 mmHg 86%
Mostrar más

Necesitamos Su Consentimiento

Meteoprog y nuestros Proveedores de Servicios pueden almacenar y acceder a sus datos personales como cookies, identificadores de dispositivo u otras tecnologías similares de su dispositivo y procesar dichos datos para personalizar contenido y anuncios, además de ofrecer funciones de redes sociales y analizar el tráfico.

  • Almacenar y/o acceder a información en su dispositivo

    Se puede almacenar o acceder a cookies, identificadores de dispositivo u otra información de su dispositivo para los fines anteriormente indicados.

  • Anuncios y contenido personalizados, medición de anuncios y contenido, percepciones del público, y desarrollo de productos

    Los anuncios y el contenido pueden personalizarse en base a su perfil. Se pueden añadir más datos para personalizar mejor los anuncios y contenidos. Se puede medir el rendimiento de los anuncios y contenidos. Se puede obtener la percepción sobre el público que ha visto los anuncios y contenidos. Dichos datos pueden usarse para desarrollar o mejorar la experiencia del usuario, sistemas y software.

Al hacer clic en ‘Estoy De Acuerdo’ usted permitirá el uso de las cookies, identificadores de dispositivo, balizas web u otras tecnologías similares indicadas. Su configuración puede cambiarse desde el navegador de su dispositivo.

Para ciertos fines, los intereses legítimos pueden ser considerados por encima del consentimiento. Puede leer más sobre ello en nuestra Política de Privacidad y Cookies.